Time,TemperatureF,DewpointF,PressureIn,WindDirection,WindDirectionDegrees,WindSpeedMPH,WindSpeedGustMPH,Humidity,HourlyPrecipIn,Conditions,Clouds,dailyrainin,SoftwareType,DateUTC
2013-04-04 00:01:00,51.2,45.2,30.00,NE,43,2.0,2.0,80,0.00,,,0.00,WeatherCatV1.10B1784,2013-04-04 07:01:00,
2013-04-04 00:06:00,50.8,45.2,29.99,NE,44,1.0,1.0,81,0.00,,,0.00,WeatherCatV1.10B1784,2013-04-04 07:06:00,
2013-04-04 00:11:00,50.6,45.3,29.99,NE,44,0.0,1.0,82,0.00,,,0.00,WeatherCatV1.10B1784,2013-04-04 07:11:00,
2013-04-04 00:16:00,50.5,45.2,29.99,NE,44,0.0,0.0,82,0.00,,,0.00,WeatherCatV1.10B1784,2013-04-04 07:16:00,
2013-04-04 00:21:00,50.4,45.4,29.99,NE,44,0.0,0.0,83,0.00,,,0.00,WeatherCatV1.10B1784,2013-04-04 07:21:00,
2013-04-04 00:26:00,50.3,45.7,29.99,NE,43,0.0,1.0,84,0.00,,,0.00,WeatherCatV1.10B1784,2013-04-04 07:26:00,
2013-04-04 00:31:00,50.2,45.6,29.99,NE,43,1.0,1.0,84,0.00,,,0.00,WeatherCatV1.10B1784,2013-04-04 07:31:00,
2013-04-04 00:36:00,50.0,45.4,29.99,NW,325,0.0,0.0,84,0.00,,,0.00,WeatherCatV1.10B1784,2013-04-04 07:36:00,
2013-04-04 00:41:00,50.0,45.4,29.99,NW,326,1.0,1.0,84,0.00,,,0.00,WeatherCatV1.10B1784,2013-04-04 07:41:00,
2013-04-04 00:46:00,50.1,45.1,29.98,NW,322,0.0,1.0,83,0.00,,,0.00,WeatherCatV1.10B1784,2013-04-04 07:46:00,
2013-04-04 00:51:00,50.2,45.2,29.98,NW,321,0.0,0.0,83,0.00,,,0.00,WeatherCatV1.10B1784,2013-04-04 07:51:00,
2013-04-04 00:56:00,50.2,45.2,29.98,NW,322,0.0,0.0,83,0.00,,,0.00,WeatherCatV1.10B1784,2013-04-04 07:56:00,
2013-04-04 01:01:00,50.1,45.1,29.98,NW,321,0.0,0.0,83,0.00,,,0.00,WeatherCatV1.10B1784,2013-04-04 08:01:00,
2013-04-04 01:06:00,49.9,45.6,29.98,NW,322,0.0,0.0,85,0.00,,,0.00,WeatherCatV1.10B1784,2013-04-04 08:06:00,
2013-04-04 01:11:00,49.7,45.4,29.98,NW,321,0.0,0.0,85,0.00,,,0.00,WeatherCatV1.10B1784,2013-04-04 08:11:00,
2013-04-04 01:16:00,49.7,45.4,29.98,NW,322,0.0,0.0,85,0.00,,,0.00,WeatherCatV1.10B1784,2013-04-04 08:16:00,
2013-04-04 01:21:00,49.9,45.6,29.98,NW,321,0.0,0.0,85,0.00,,,0.00,WeatherCatV1.10B1784,2013-04-04 08:21:00,
2013-04-04 01:26:00,49.9,45.6,29.98,NW,318,0.0,0.0,85,0.00,,,0.00,WeatherCatV1.10B1784,2013-04-04 08:26:00,
2013-04-04 01:31:00,49.9,45.6,29.98,NW,318,0.0,0.0,85,0.00,,,0.00,WeatherCatV1.10B1784,2013-04-04 08:31:00,
2013-04-04 01:36:00,49.9,45.6,29.98,NW,318,0.0,1.0,85,0.00,,,0.00,WeatherCatV1.10B1784,2013-04-04 08:36:00,
2013-04-04 01:41:00,50.0,45.7,29.98,NW,318,0.0,1.0,85,0.00,,,0.00,WeatherCatV1.10B1784,2013-04-04 08:41:00,
2013-04-04 01:46:00,50.0,45.4,29.97,NW,317,0.0,1.0,84,0.00,,,0.00,WeatherCatV1.10B1784,2013-04-04 08:46:00,
2013-04-04 01:51:00,50.0,45.7,29.97,NW,319,0.0,0.0,85,0.00,,,0.00,WeatherCatV1.10B1784,2013-04-04 08:51:00,
2013-04-04 01:56:00,50.1,45.8,29.97,North,359,0.0,0.0,85,0.00,,,0.00,WeatherCatV1.10B1784,2013-04-04 08:56:00,
2013-04-04 02:01:00,50.1,45.8,29.96,North,358,0.0,0.0,85,0.00,,,0.00,WeatherCatV1.10B1784,2013-04-04 09:01:00,
2013-04-04 02:06:00,50.0,45.7,29.96,North,5,0.0,2.0,85,0.00,,,0.00,WeatherCatV1.10B1784,2013-04-04 09:06:00,
2013-04-04 02:11:00,49.8,45.5,29.96,NNE,26,1.0,1.0,85,0.00,,,0.00,WeatherCatV1.10B1784,2013-04-04 09:11:00,
2013-04-04 02:16:00,49.7,45.7,29.96,SSE,153,2.0,2.0,86,0.00,,,0.00,WeatherCatV1.10B1784,2013-04-04 09:16:00,
2013-04-04 02:21:00,49.5,45.5,29.95,SSE,156,0.0,0.0,86,0.00,,,0.00,WeatherCatV1.10B1784,2013-04-04 09:21:00,
2013-04-04 02:26:00,49.3,45.6,29.95,SSE,153,0.0,0.0,87,0.00,,,0.00,WeatherCatV1.10B1784,2013-04-04 09:26:00,
2013-04-04 02:31:00,49.3,45.6,29.95,West,271,1.0,1.0,87,0.00,,,0.00,WeatherCatV1.10B1784,2013-04-04 09:31:00,
2013-04-04 02:36:00,49.1,45.4,29.95,West,271,1.0,1.0,87,0.00,,,0.00,WeatherCatV1.10B1784,2013-04-04 09:36:00,
2013-04-04 02:41:00,48.9,45.5,29.95,West,271,0.0,1.0,88,0.00,,,0.00,WeatherCatV1.10B1784,2013-04-04 09:41:00,
2013-04-04 02:46:00,48.8,45.4,29.95,SW,218,0.0,1.0,88,0.00,,,0.00,WeatherCatV1.10B1784,2013-04-04 09:46:00,
2013-04-04 02:51:00,48.8,45.4,29.95,SW,218,0.0,0.0,88,0.00,,,0.00,WeatherCatV1.10B1784,2013-04-04 09:51:00,
2013-04-04 02:56:00,48.8,45.4,29.94,SW,218,0.0,1.0,88,0.00,,,0.00,WeatherCatV1.10B1784,2013-04-04 09:56:00,
2013-04-04 03:01:00,48.7,45.3,29.94,SW,218,0.0,0.0,88,0.00,,,0.00,WeatherCatV1.10B1784,2013-04-04 10:01:00,
2013-04-04 03:06:00,48.7,45.6,29.94,SW,224,1.0,1.0,89,0.00,,,0.00,WeatherCatV1.10B1784,2013-04-04 10:06:00,
2013-04-04 03:11:00,48.7,45.6,29.94,SW,224,0.0,0.0,89,0.00,,,0.00,WeatherCatV1.10B1784,2013-04-04 10:11:00,
2013-04-04 03:16:00,48.6,45.5,29.94,SW,224,0.0,0.0,89,0.00,,,0.00,WeatherCatV1.10B1784,2013-04-04 10:16:00,
2013-04-04 03:21:00,48.6,45.5,29.94,SW,224,0.0,0.0,89,0.00,,,0.00,WeatherCatV1.10B1784,2013-04-04 10:21:00,
2013-04-04 03:26:00,48.6,45.5,29.94,SW,224,0.0,0.0,89,0.00,,,0.00,WeatherCatV1.10B1784,2013-04-04 10:26:00,
2013-04-04 03:31:00,48.6,45.5,29.93,SW,224,0.0,0.0,89,0.00,,,0.00,WeatherCatV1.10B1784,2013-04-04 10:31:00,
2013-04-04 03:36:00,48.7,45.6,29.93,SW,224,0.0,0.0,89,0.00,,,0.00,WeatherCatV1.10B1784,2013-04-04 10:36:00,
2013-04-04 03:41:00,48.6,45.5,29.94,SW,224,0.0,0.0,89,0.00,,,0.00,WeatherCatV1.10B1784,2013-04-04 10:41:00,
2013-04-04 03:46:00,48.5,45.4,29.93,SW,224,0.0,0.0,89,0.00,,,0.00,WeatherCatV1.10B1784,2013-04-04 10:46:00,
2013-04-04 03:51:00,48.4,45.3,29.93,SW,224,0.0,0.0,89,0.00,,,0.00,WeatherCatV1.10B1784,2013-04-04 10:51:00,
2013-04-04 03:56:00,48.3,45.2,29.93,SW,224,0.0,0.0,89,0.00,,,0.00,WeatherCatV1.10B1784,2013-04-04 10:56:00,
2013-04-04 04:01:00,48.3,45.5,29.93,SW,224,0.0,0.0,90,0.00,,,0.00,WeatherCatV1.10B1784,2013-04-04 11:01:00,
2013-04-04 04:06:00,48.3,45.5,29.92,SW,224,0.0,0.0,90,0.00,,,0.00,WeatherCatV1.10B1784,2013-04-04 11:06:00,
2013-04-04 04:11:00,48.3,45.5,29.92,NW,314,1.0,1.0,90,0.00,,,0.00,WeatherCatV1.10B1784,2013-04-04 11:11:00,
2013-04-04 04:16:00,48.3,45.5,29.92,NW,314,0.0,0.0,90,0.00,,,0.00,WeatherCatV1.10B1784,2013-04-04 11:16:00,
2013-04-04 04:21:00,48.3,45.5,29.92,NW,314,0.0,0.0,90,0.00,,,0.00,WeatherCatV1.10B1784,2013-04-04 11:21:00,
2013-04-04 04:26:00,48.3,45.5,29.91,NW,314,0.0,0.0,90,0.00,,,0.00,WeatherCatV1.10B1784,2013-04-04 11:26:00,
2013-04-04 04:31:00,48.2,45.4,29.91,NW,314,0.0,0.0,90,0.00,,,0.00,WeatherCatV1.10B1784,2013-04-04 11:31:00,
2013-04-04 04:36:00,48.3,45.5,29.91,NW,310,0.0,1.0,90,0.00,,,0.00,WeatherCatV1.10B1784,2013-04-04 11:36:00,
2013-04-04 04:41:00,48.2,45.4,29.91,NW,312,0.0,0.0,90,0.00,,,0.00,WeatherCatV1.10B1784,2013-04-04 11:41:00,
2013-04-04 04:46:00,48.1,45.3,29.91,NW,312,0.0,0.0,90,0.00,,,0.00,WeatherCatV1.10B1784,2013-04-04 11:46:00,
2013-04-04 04:51:00,48.1,45.6,29.91,NW,312,0.0,0.0,91,0.00,,,0.00,WeatherCatV1.10B1784,2013-04-04 11:51:00,
2013-04-04 04:56:00,48.1,45.6,29.91,NW,311,0.0,0.0,91,0.00,,,0.00,WeatherCatV1.10B1784,2013-04-04 11:56:00,
2013-04-04 05:01:00,48.2,45.7,29.91,NW,310,0.0,0.0,91,0.00,,,0.00,WeatherCatV1.10B1784,2013-04-04 12:01:00,
2013-04-04 05:06:00,48.1,45.6,29.91,NW,314,1.0,1.0,91,0.00,,,0.00,WeatherCatV1.10B1784,2013-04-04 12:06:00,
2013-04-04 05:11:00,48.1,45.6,29.90,NW,321,0.0,0.0,91,0.00,,,0.00,WeatherCatV1.10B1784,2013-04-04 12:11:00,
2013-04-04 05:16:00,48.1,45.6,29.90,NW,321,0.0,1.0,91,0.00,,,0.00,WeatherCatV1.10B1784,2013-04-04 12:16:00,
2013-04-04 05:21:00,48.1,45.6,29.90,NW,322,0.0,0.0,91,0.00,,,0.00,WeatherCatV1.10B1784,2013-04-04 12:21:00,
2013-04-04 05:26:00,48.1,45.6,29.90,NNW,330,0.0,1.0,91,0.00,,,0.00,WeatherCatV1.10B1784,2013-04-04 12:26:00,
2013-04-04 05:31:00,48.0,45.5,29.89,North,350,1.0,1.0,91,0.00,,,0.00,WeatherCatV1.10B1784,2013-04-04 12:31:00,
2013-04-04 05:36:00,48.0,45.5,29.89,North,350,0.0,1.0,91,0.00,,,0.00,WeatherCatV1.10B1784,2013-04-04 12:36:00,
2013-04-04 05:41:00,47.9,45.4,29.89,North,350,0.0,0.0,91,0.00,,,0.00,WeatherCatV1.10B1784,2013-04-04 12:41:00,
2013-04-04 05:46:00,47.9,45.4,29.88,North,350,0.0,1.0,91,0.00,,,0.00,WeatherCatV1.10B1784,2013-04-04 12:46:00,
2013-04-04 05:51:00,47.9,45.4,29.89,North,349,0.0,1.0,91,0.00,,,0.00,WeatherCatV1.10B1784,2013-04-04 12:51:00,
2013-04-04 05:56:00,47.9,45.4,29.88,SE,127,1.0,1.0,91,0.00,,,0.00,WeatherCatV1.10B1784,2013-04-04 12:56:00,
2013-04-04 06:01:00,47.9,45.4,29.88,SE,126,0.0,0.0,91,0.00,,,0.00,WeatherCatV1.10B1784,2013-04-04 13:01:00,
2013-04-04 06:06:00,47.9,45.7,29.88,SE,125,0.0,1.0,92,0.00,,,0.00,WeatherCatV1.10B1784,2013-04-04 13:06:00,
2013-04-04 06:11:00,47.9,45.4,29.87,NE,38,2.0,2.0,91,0.00,,,0.00,WeatherCatV1.10B1784,2013-04-04 13:11:00,
2013-04-04 06:16:00,48.0,45.8,29.87,NE,37,0.0,0.0,92,0.00,,,0.00,WeatherCatV1.10B1784,2013-04-04 13:16:00,
2013-04-04 06:21:00,48.0,45.8,29.87,NE,37,1.0,2.0,92,0.00,,,0.00,WeatherCatV1.10B1784,2013-04-04 13:21:00,
2013-04-04 06:26:00,48.0,45.8,29.87,SSE,150,2.0,2.0,92,0.00,,,0.00,WeatherCatV1.10B1784,2013-04-04 13:26:00,
2013-04-04 06:31:00,48.1,45.9,29.86,SSE,147,0.0,0.0,92,0.00,,,0.00,WeatherCatV1.10B1784,2013-04-04 13:31:00,
2013-04-04 06:36:00,48.1,45.9,29.86,SSE,147,1.0,1.0,92,0.00,,,0.00,WeatherCatV1.10B1784,2013-04-04 13:36:00,
2013-04-04 06:41:00,48.2,46.0,29.86,NE,43,2.0,2.0,92,0.00,,,0.00,WeatherCatV1.10B1784,2013-04-04 13:41:00,
2013-04-04 06:46:00,48.1,45.9,29.86,NE,43,1.0,2.0,92,0.00,,,0.00,WeatherCatV1.10B1784,2013-04-04 13:46:00,
2013-04-04 06:51:00,48.1,46.2,29.85,NE,39,2.0,2.0,93,0.00,,,0.00,WeatherCatV1.10B1784,2013-04-04 13:51:00,
2013-04-04 06:56:00,48.0,46.1,29.85,NE,38,2.0,2.0,93,0.00,,,0.00,WeatherCatV1.10B1784,2013-04-04 13:56:00,
2013-04-04 07:01:00,47.5,45.3,29.85,NE,46,1.0,2.0,92,0.00,,,0.00,WeatherCatV1.10B1784,2013-04-04 14:01:00,
2013-04-04 07:06:00,47.5,45.3,29.85,NE,47,2.0,2.0,92,0.00,,,0.00,WeatherCatV1.10B1784,2013-04-04 14:06:00,
2013-04-04 07:11:00,47.5,45.3,29.85,NE,47,2.0,2.0,92,0.00,,,0.00,WeatherCatV1.10B1784,2013-04-04 14:11:00,
2013-04-04 07:16:00,-999.0,-99.9,29.84,North,-999,-999.0,0.0,-999,0.00,,,0.00,WeatherCatV1.10B1784,2013-04-04 14:16:00,
2013-04-04 07:21:00,-999.0,-99.9,29.83,North,-999,-999.0,0.0,-999,0.00,,,0.00,WeatherCatV1.10B1784,2013-04-04 14:21:00,
2013-04-04 07:26:00,-999.0,-99.9,29.83,North,-999,-999.0,0.0,-999,0.00,,,0.00,WeatherCatV1.10B1784,2013-04-04 14:26:00,
2013-04-04 07:31:00,-999.0,-99.9,29.83,North,-999,-999.0,0.0,-999,0.00,,,0.00,WeatherCatV1.10B1784,2013-04-04 14:31:00,
2013-04-04 07:36:00,-999.0,-99.9,29.83,North,-999,-999.0,0.0,-999,0.00,,,0.00,WeatherCatV1.10B1784,2013-04-04 14:36:00,
2013-04-04 07:41:00,-999.0,-99.9,29.83,North,-999,-999.0,0.0,-999,0.00,,,0.00,WeatherCatV1.10B1784,2013-04-04 14:41:00,
2013-04-04 07:46:00,-999.0,-99.9,29.82,North,-999,-999.0,0.0,-999,0.00,,,0.00,WeatherCatV1.10B1784,2013-04-04 14:46:00,
2013-04-04 07:51:00,-999.0,-99.9,29.82,North,-999,-999.0,0.0,-999,0.00,,,0.00,WeatherCatV1.10B1784,2013-04-04 14:51:00,
2013-04-04 07:56:00,-999.0,-99.9,29.82,North,-999,-999.0,0.0,-999,0.00,,,0.00,WeatherCatV1.10B1784,2013-04-04 14:56:00,
2013-04-04 08:01:00,-999.0,-99.9,29.81,North,-999,-999.0,0.0,-999,0.00,,,0.00,WeatherCatV1.10B1784,2013-04-04 15:01:00,
2013-04-04 08:06:00,-999.0,-99.9,29.81,North,-999,-999.0,0.0,-999,0.00,,,0.00,WeatherCatV1.10B1784,2013-04-04 15:06:00,
2013-04-04 08:11:00,-999.0,-99.9,29.81,North,-999,-999.0,0.0,-999,0.00,,,0.00,WeatherCatV1.10B1784,2013-04-04 15:11:00,
2013-04-04 08:16:00,-999.0,-99.9,29.81,North,-999,-999.0,0.0,-999,0.00,,,0.00,WeatherCatV1.10B1784,2013-04-04 15:16:00,
2013-04-04 08:21:00,49.0,47.1,29.81,NE,35,3.0,3.0,93,0.00,,,0.00,WeatherCatV1.10B1784,2013-04-04 15:21:00,
2013-04-04 08:26:00,49.2,47.3,29.81,WNW,288,3.0,4.0,93,0.00,,,0.00,WeatherCatV1.10B1784,2013-04-04 15:26:00,
2013-04-04 08:31:00,49.2,47.5,29.80,ENE,57,2.0,4.0,94,0.00,,,0.00,WeatherCatV1.10B1784,2013-04-04 15:31:00,
2013-04-04 08:36:00,49.4,47.7,29.81,SSW,205,4.0,5.0,94,0.00,,,0.00,WeatherCatV1.10B1784,2013-04-04 15:36:00,
2013-04-04 08:41:00,49.3,47.4,29.80,NW,304,4.0,6.0,93,0.00,,,0.00,WeatherCatV1.10B1784,2013-04-04 15:41:00,
2013-04-04 08:46:00,49.2,47.5,29.80,NE,48,3.0,4.0,94,0.00,,,0.00,WeatherCatV1.10B1784,2013-04-04 15:46:00,
2013-04-04 08:51:00,49.4,47.7,29.80,North,6,3.0,3.0,94,0.00,,,0.00,WeatherCatV1.10B1784,2013-04-04 15:51:00,
2013-04-04 08:56:00,49.7,48.0,29.80,NNW,335,2.0,2.0,94,0.00,,,0.00,WeatherCatV1.10B1784,2013-04-04 15:56:00,
2013-04-04 09:01:00,50.1,48.2,29.79,West,262,1.0,2.0,93,0.00,,,0.00,WeatherCatV1.10B1784,2013-04-04 16:01:00,
2013-04-04 09:06:00,50.4,48.5,29.79,WNW,291,2.0,2.0,93,0.00,,,0.00,WeatherCatV1.10B1784,2013-04-04 16:06:00,
2013-04-04 09:11:00,50.5,48.6,29.79,West,280,1.0,3.0,93,0.00,,,0.00,WeatherCatV1.10B1784,2013-04-04 16:11:00,
2013-04-04 09:16:00,50.5,48.6,29.79,WNW,293,1.0,1.0,93,0.00,,,0.00,WeatherCatV1.10B1784,2013-04-04 16:16:00,
2013-04-04 09:21:00,50.5,48.6,29.78,WNW,284,1.0,2.0,93,0.00,,,0.00,WeatherCatV1.10B1784,2013-04-04 16:21:00,
2013-04-04 09:26:00,50.6,48.7,29.78,NW,310,0.0,1.0,93,0.00,,,0.00,WeatherCatV1.10B1784,2013-04-04 16:26:00,
2013-04-04 09:31:00,50.8,48.8,29.78,NW,307,1.0,1.0,93,0.00,,,0.00,WeatherCatV1.10B1784,2013-04-04 16:31:00,
2013-04-04 09:36:00,51.1,49.1,29.78,West,266,0.0,1.0,93,0.00,,,0.01,WeatherCatV1.10B1784,2013-04-04 16:36:00,
2013-04-04 09:41:00,51.1,49.1,29.78,WNW,284,1.0,1.0,93,0.00,,,0.01,WeatherCatV1.10B1784,2013-04-04 16:41:00,
2013-04-04 09:46:00,51.1,48.9,29.78,West,275,1.0,3.0,92,0.00,,,0.01,WeatherCatV1.10B1784,2013-04-04 16:46:00,
2013-04-04 09:51:00,51.0,48.8,29.77,NW,324,2.0,3.0,92,0.00,,,0.01,WeatherCatV1.10B1784,2013-04-04 16:51:00,
2013-04-04 09:56:00,51.1,48.9,29.77,West,272,1.0,2.0,92,0.00,,,0.01,WeatherCatV1.10B1784,2013-04-04 16:56:00,
2013-04-04 10:01:00,51.2,49.2,29.77,WNW,291,2.0,2.0,93,0.00,,,0.01,WeatherCatV1.10B1784,2013-04-04 17:01:00,
2013-04-04 10:06:00,51.1,49.1,29.77,West,281,0.0,2.0,93,0.00,,,0.01,WeatherCatV1.10B1784,2013-04-04 17:06:00,
2013-04-04 10:11:00,51.2,49.5,29.77,West,262,0.0,1.0,94,0.00,,,0.02,WeatherCatV1.10B1784,2013-04-04 17:11:00,
2013-04-04 10:16:00,51.2,49.5,29.77,SW,221,2.0,2.0,94,0.00,,,0.02,WeatherCatV1.10B1784,2013-04-04 17:16:00,
2013-04-04 10:21:00,51.1,49.1,29.76,West,269,1.0,3.0,93,0.00,,,0.02,WeatherCatV1.10B1784,2013-04-04 17:21:00,
2013-04-04 10:26:00,51.1,49.4,29.76,WNW,297,1.0,1.0,94,0.00,,,0.02,WeatherCatV1.10B1784,2013-04-04 17:26:00,
2013-04-04 10:31:00,51.2,49.5,29.77,West,281,1.0,2.0,94,0.00,,,0.02,WeatherCatV1.10B1784,2013-04-04 17:31:00,
2013-04-04 10:36:00,51.2,49.5,29.77,NW,304,2.0,2.0,94,0.00,,,0.02,WeatherCatV1.10B1784,2013-04-04 17:36:00,
2013-04-04 10:41:00,51.3,49.6,29.77,WNW,295,0.0,0.0,94,0.00,,,0.02,WeatherCatV1.10B1784,2013-04-04 17:41:00,
2013-04-04 10:46:00,51.3,49.6,29.77,WSW,239,6.0,6.0,94,0.00,,,0.02,WeatherCatV1.10B1784,2013-04-04 17:46:00,
2013-04-04 10:51:00,51.4,49.7,29.77,WNW,297,1.0,2.0,94,0.00,,,0.02,WeatherCatV1.10B1784,2013-04-04 17:51:00,
2013-04-04 10:56:00,51.3,49.6,29.77,SW,233,5.0,5.0,94,0.00,,,0.02,WeatherCatV1.10B1784,2013-04-04 17:56:00,
2013-04-04 11:01:00,51.1,49.4,29.76,NNW,348,1.0,3.0,94,0.00,,,0.02,WeatherCatV1.10B1784,2013-04-04 18:01:00,
2013-04-04 11:06:00,51.4,50.0,29.77,WNW,297,0.0,1.0,95,0.00,,,0.02,WeatherCatV1.10B1784,2013-04-04 18:06:00,
2013-04-04 11:11:00,51.6,50.2,29.77,SW,232,0.0,1.0,95,0.00,,,0.02,WeatherCatV1.10B1784,2013-04-04 18:11:00,
2013-04-04 11:16:00,51.8,50.4,29.77,ENE,74,1.0,2.0,95,0.00,,,0.02,WeatherCatV1.10B1784,2013-04-04 18:16:00,
2013-04-04 11:21:00,51.9,50.2,29.76,North,356,0.0,1.0,94,0.00,,,0.02,WeatherCatV1.10B1784,2013-04-04 18:21:00,
2013-04-04 11:26:00,52.1,50.4,29.76,WNW,297,0.0,1.0,94,0.00,,,0.02,WeatherCatV1.10B1784,2013-04-04 18:26:00,
2013-04-04 11:31:00,52.4,50.7,29.77,South,188,2.0,4.0,94,0.00,,,0.02,WeatherCatV1.10B1784,2013-04-04 18:31:00,
2013-04-04 11:36:00,52.5,50.8,29.76,NE,41,3.0,3.0,94,0.00,,,0.02,WeatherCatV1.10B1784,2013-04-04 18:36:00,
2013-04-04 11:41:00,52.7,51.0,29.76,SSW,208,3.0,5.0,94,0.00,,,0.02,WeatherCatV1.10B1784,2013-04-04 18:41:00,
2013-04-04 11:46:00,52.5,50.8,29.77,SSE,156,5.0,5.0,94,0.00,,,0.02,WeatherCatV1.10B1784,2013-04-04 18:46:00,
2013-04-04 11:51:00,52.0,50.3,29.76,SSW,212,6.0,6.0,94,0.00,,,0.02,WeatherCatV1.10B1784,2013-04-04 18:51:00,
2013-04-04 11:56:00,51.5,50.1,29.76,ESE,118,1.0,2.0,95,0.00,,,0.02,WeatherCatV1.10B1784,2013-04-04 18:56:00,
2013-04-04 12:01:00,51.4,50.0,29.76,SW,222,4.0,4.0,95,0.00,,,0.03,WeatherCatV1.10B1784,2013-04-04 19:01:00,
2013-04-04 12:06:00,51.5,50.4,29.76,SW,235,0.0,2.0,96,0.00,,,0.03,WeatherCatV1.10B1784,2013-04-04 19:06:00,
2013-04-04 12:11:00,51.5,50.4,29.76,SSE,160,1.0,6.0,96,0.00,,,0.03,WeatherCatV1.10B1784,2013-04-04 19:11:00,
2013-04-04 12:16:00,51.8,50.7,29.76,WSW,249,5.0,5.0,96,0.00,,,0.03,WeatherCatV1.10B1784,2013-04-04 19:16:00,
2013-04-04 12:21:00,51.7,50.3,29.76,East,82,3.0,3.0,95,0.00,,,0.03,WeatherCatV1.10B1784,2013-04-04 19:21:00,
2013-04-04 12:26:00,52.0,50.9,29.76,SSE,166,1.0,1.0,96,0.00,,,0.03,WeatherCatV1.10B1784,2013-04-04 19:26:00,
2013-04-04 12:31:00,52.3,51.2,29.76,South,181,0.0,0.0,96,0.00,,,0.03,WeatherCatV1.10B1784,2013-04-04 19:31:00,
2013-04-04 12:36:00,52.7,51.6,29.75,NE,56,3.0,5.0,96,0.00,,,0.03,WeatherCatV1.10B1784,2013-04-04 19:36:00,
2013-04-04 12:41:00,52.9,51.8,29.75,NNE,27,3.0,3.0,96,0.00,,,0.04,WeatherCatV1.10B1784,2013-04-04 19:41:00,
2013-04-04 12:46:00,53.2,52.1,29.75,NE,53,1.0,2.0,96,0.00,,,0.04,WeatherCatV1.10B1784,2013-04-04 19:46:00,
2013-04-04 12:51:00,53.3,52.2,29.75,ENE,77,2.0,3.0,96,0.00,,,0.04,WeatherCatV1.10B1784,2013-04-04 19:51:00,
2013-04-04 12:56:00,53.6,52.5,29.74,NE,56,1.0,2.0,96,0.00,,,0.04,WeatherCatV1.10B1784,2013-04-04 19:56:00,
2013-04-04 13:01:00,53.9,52.8,29.74,ENE,59,3.0,5.0,96,0.00,,,0.05,WeatherCatV1.10B1784,2013-04-04 20:01:00,
2013-04-04 13:06:00,54.1,53.0,29.74,ESE,105,2.0,4.0,96,0.00,,,0.05,WeatherCatV1.10B1784,2013-04-04 20:06:00,
2013-04-04 13:11:00,54.3,52.9,29.74,SE,124,2.0,3.0,95,0.00,,,0.05,WeatherCatV1.10B1784,2013-04-04 20:11:00,
2013-04-04 13:16:00,54.7,53.3,29.74,ESE,103,1.0,2.0,95,0.00,,,0.05,WeatherCatV1.10B1784,2013-04-04 20:16:00,
2013-04-04 13:21:00,55.0,53.6,29.74,East,84,0.0,1.0,95,0.00,,,0.05,WeatherCatV1.10B1784,2013-04-04 20:21:00,
2013-04-04 13:26:00,55.2,53.5,29.73,ENE,59,2.0,2.0,94,0.00,,,0.05,WeatherCatV1.10B1784,2013-04-04 20:26:00,
2013-04-04 13:31:00,55.5,53.8,29.73,ESE,111,1.0,3.0,94,0.00,,,0.06,WeatherCatV1.10B1784,2013-04-04 20:31:00,
2013-04-04 13:36:00,55.5,53.5,29.74,SE,145,3.0,3.0,93,0.00,,,0.06,WeatherCatV1.10B1784,2013-04-04 20:36:00,
2013-04-04 13:41:00,55.2,53.2,29.73,East,101,3.0,3.0,93,0.00,,,0.06,WeatherCatV1.10B1784,2013-04-04 20:41:00,
2013-04-04 13:46:00,55.3,53.6,29.73,SE,128,0.0,1.0,94,0.00,,,0.07,WeatherCatV1.10B1784,2013-04-04 20:46:00,
2013-04-04 13:51:00,55.3,53.6,29.72,ENE,57,1.0,2.0,94,0.00,,,0.07,WeatherCatV1.10B1784,2013-04-04 20:51:00,
2013-04-04 13:56:00,55.3,53.3,29.72,SE,143,0.0,2.0,93,0.00,,,0.07,WeatherCatV1.10B1784,2013-04-04 20:56:00,
2013-04-04 14:01:00,55.4,53.7,29.72,SE,141,0.0,0.0,94,0.04,,,0.08,WeatherCatV1.10B1784,2013-04-04 21:01:00,
2013-04-04 14:06:00,55.4,53.4,29.73,WSW,243,2.0,2.0,93,0.04,,,0.08,WeatherCatV1.10B1784,2013-04-04 21:06:00,
2013-04-04 14:11:00,55.3,53.3,29.72,WSW,249,3.0,3.0,93,0.04,,,0.08,WeatherCatV1.10B1784,2013-04-04 21:11:00,
2013-04-04 14:16:00,55.0,53.3,29.73,SW,215,4.0,5.0,94,0.04,,,0.08,WeatherCatV1.10B1784,2013-04-04 21:16:00,
2013-04-04 14:21:00,54.9,53.2,29.73,SSW,207,4.0,5.0,94,0.00,,,0.09,WeatherCatV1.10B1784,2013-04-04 21:21:00,
2013-04-04 14:26:00,54.8,53.4,29.73,West,267,2.0,7.0,95,0.00,,,0.09,WeatherCatV1.10B1784,2013-04-04 21:26:00,
2013-04-04 14:31:00,54.9,53.5,29.73,WSW,243,4.0,5.0,95,0.00,,,0.09,WeatherCatV1.10B1784,2013-04-04 21:31:00,
2013-04-04 14:36:00,54.8,53.4,29.73,West,278,3.0,6.0,95,0.04,,,0.10,WeatherCatV1.10B1784,2013-04-04 21:36:00,
2013-04-04 14:41:00,54.3,53.2,29.73,SW,231,6.0,8.0,96,0.04,,,0.10,WeatherCatV1.10B1784,2013-04-04 21:41:00,
2013-04-04 14:46:00,53.8,52.7,29.73,SW,222,4.0,8.0,96,0.04,,,0.10,WeatherCatV1.10B1784,2013-04-04 21:46:00,
2013-04-04 14:51:00,53.3,52.2,29.73,SW,224,2.0,3.0,96,0.04,,,0.10,WeatherCatV1.10B1784,2013-04-04 21:51:00,
2013-04-04 14:56:00,53.1,52.0,29.73,SSE,165,0.0,2.0,96,0.00,,,0.11,WeatherCatV1.10B1784,2013-04-04 21:56:00,
2013-04-04 15:01:00,52.9,51.8,29.73,WSW,243,1.0,4.0,96,0.00,,,0.11,WeatherCatV1.10B1784,2013-04-04 22:01:00,
2013-04-04 15:06:00,52.8,51.7,29.73,South,184,0.0,2.0,96,0.00,,,0.11,WeatherCatV1.10B1784,2013-04-04 22:06:00,
2013-04-04 15:11:00,52.8,52.0,29.73,WNW,287,2.0,2.0,97,0.00,,,0.11,WeatherCatV1.10B1784,2013-04-04 22:11:00,
2013-04-04 15:16:00,52.8,52.0,29.73,SSW,205,1.0,4.0,97,0.00,,,0.11,WeatherCatV1.10B1784,2013-04-04 22:16:00,
2013-04-04 15:21:00,52.7,51.9,29.73,SW,222,0.0,2.0,97,0.00,,,0.12,WeatherCatV1.10B1784,2013-04-04 22:21:00,
2013-04-04 15:26:00,52.6,51.8,29.73,West,260,0.0,1.0,97,0.00,,,0.12,WeatherCatV1.10B1784,2013-04-04 22:26:00,
2013-04-04 15:31:00,52.7,51.9,29.73,West,260,0.0,0.0,97,0.00,,,0.12,WeatherCatV1.10B1784,2013-04-04 22:31:00,
2013-04-04 15:36:00,52.8,52.0,29.72,West,278,1.0,1.0,97,0.00,,,0.13,WeatherCatV1.10B1784,2013-04-04 22:36:00,
2013-04-04 15:41:00,52.9,52.1,29.72,SW,226,0.0,0.0,97,0.00,,,0.13,WeatherCatV1.10B1784,2013-04-04 22:41:00,
2013-04-04 15:46:00,53.2,52.4,29.72,SE,134,1.0,1.0,97,0.00,,,0.13,WeatherCatV1.10B1784,2013-04-04 22:46:00,
2013-04-04 15:51:00,53.7,52.9,29.72,SE,128,0.0,1.0,97,0.05,,,0.14,WeatherCatV1.10B1784,2013-04-04 22:51:00,
2013-04-04 15:56:00,53.8,53.0,29.71,NE,44,0.0,1.0,97,0.05,,,0.14,WeatherCatV1.10B1784,2013-04-04 22:56:00,
2013-04-04 16:01:00,54.1,53.3,29.71,ENE,68,1.0,3.0,97,0.04,,,0.14,WeatherCatV1.10B1784,2013-04-04 23:01:00,
2013-04-04 16:06:00,54.3,53.5,29.71,ENE,65,0.0,1.0,97,0.00,,,0.15,WeatherCatV1.10B1784,2013-04-04 23:06:00,
2013-04-04 16:11:00,54.8,54.2,29.71,ENE,65,0.0,0.0,98,0.00,,,0.15,WeatherCatV1.10B1784,2013-04-04 23:11:00,
2013-04-04 16:16:00,55.2,54.6,29.70,ENE,65,0.0,1.0,98,0.00,,,0.15,WeatherCatV1.10B1784,2013-04-04 23:16:00,
2013-04-04 16:21:00,55.3,54.5,29.70,South,172,1.0,2.0,97,0.04,,,0.16,WeatherCatV1.10B1784,2013-04-04 23:21:00,
2013-04-04 16:26:00,55.3,54.5,29.70,NE,47,0.0,2.0,97,0.04,,,0.16,WeatherCatV1.10B1784,2013-04-04 23:26:00,
2013-04-04 16:31:00,55.4,54.6,29.70,South,191,1.0,3.0,97,0.07,,,0.17,WeatherCatV1.10B1784,2013-04-04 23:31:00,
2013-04-04 16:36:00,55.4,54.6,29.70,SW,222,2.0,2.0,97,0.10,,,0.18,WeatherCatV1.10B1784,2013-04-04 23:36:00,
2013-04-04 16:41:00,55.3,54.5,29.70,WSW,257,2.0,3.0,97,0.10,,,0.18,WeatherCatV1.10B1784,2013-04-04 23:41:00,
2013-04-04 16:46:00,55.3,54.5,29.70,WNW,283,0.0,0.0,97,0.07,,,0.19,WeatherCatV1.10B1784,2013-04-04 23:46:00,
2013-04-04 16:51:00,55.4,54.6,29.70,WNW,284,0.0,0.0,97,0.07,,,0.19,WeatherCatV1.10B1784,2013-04-04 23:51:00,
2013-04-04 16:56:00,55.3,54.5,29.70,WSW,253,1.0,3.0,97,0.07,,,0.20,WeatherCatV1.10B1784,2013-04-04 23:56:00,
2013-04-04 17:01:00,55.2,54.1,29.71,SSE,149,3.0,4.0,96,0.06,,,0.20,WeatherCatV1.10B1784,2013-04-05 00:01:00,
2013-04-04 17:06:00,55.1,54.3,29.71,WSW,256,4.0,4.0,97,0.04,,,0.20,WeatherCatV1.10B1784,2013-04-05 00:06:00,
2013-04-04 17:11:00,54.8,54.0,29.71,SW,236,3.0,6.0,97,0.00,,,0.20,WeatherCatV1.10B1784,2013-04-05 00:11:00,
2013-04-04 17:16:00,54.5,53.7,29.72,WSW,250,1.0,2.0,97,0.00,,,0.20,WeatherCatV1.10B1784,2013-04-05 00:16:00,
2013-04-04 17:21:00,54.5,53.7,29.71,ESE,115,1.0,2.0,97,0.00,,,0.20,WeatherCatV1.10B1784,2013-04-05 00:21:00,
2013-04-04 17:26:00,54.6,53.8,29.72,SSE,160,4.0,5.0,97,0.00,,,0.20,WeatherCatV1.10B1784,2013-04-05 00:26:00,
2013-04-04 17:31:00,54.6,53.8,29.72,South,180,2.0,4.0,97,0.00,,,0.20,WeatherCatV1.10B1784,2013-04-05 00:31:00,
2013-04-04 17:36:00,54.6,53.8,29.72,SE,128,2.0,5.0,97,0.00,,,0.21,WeatherCatV1.10B1784,2013-04-05 00:36:00,
2013-04-04 17:41:00,54.6,53.8,29.72,SE,138,4.0,4.0,97,0.00,,,0.21,WeatherCatV1.10B1784,2013-04-05 00:41:00,
2013-04-04 17:46:00,54.5,53.7,29.73,SE,128,4.0,7.0,97,0.00,,,0.21,WeatherCatV1.10B1784,2013-04-05 00:46:00,
2013-04-04 17:51:00,54.5,53.7,29.73,SE,145,4.0,11.0,97,0.00,,,0.21,WeatherCatV1.10B1784,2013-04-05 00:51:00,
2013-04-04 17:56:00,54.7,53.6,29.73,SSE,147,6.0,9.0,96,0.00,,,0.21,WeatherCatV1.10B1784,2013-04-05 00:56:00,
2013-04-04 18:01:00,54.8,53.4,29.73,ESE,112,5.0,9.0,95,0.00,,,0.21,WeatherCatV1.10B1784,2013-04-05 01:01:00,
2013-04-04 18:06:00,54.9,53.5,29.74,South,173,3.0,10.0,95,0.00,,,0.21,WeatherCatV1.10B1784,2013-04-05 01:06:00,
2013-04-04 18:11:00,54.9,53.2,29.74,SE,140,6.0,10.0,94,0.00,,,0.21,WeatherCatV1.10B1784,2013-04-05 01:11:00,
2013-04-04 18:16:00,55.0,53.3,29.74,SE,145,4.0,11.0,94,0.00,,,0.21,WeatherCatV1.10B1784,2013-04-05 01:16:00,
2013-04-04 18:21:00,55.0,53.0,29.74,South,183,11.0,11.0,93,0.00,,,0.21,WeatherCatV1.10B1784,2013-04-05 01:21:00,
2013-04-04 18:26:00,55.1,53.1,29.74,WSW,246,4.0,13.0,93,0.00,,,0.21,WeatherCatV1.10B1784,2013-04-05 01:26:00,
2013-04-04 18:31:00,55.1,53.1,29.74,South,177,5.0,12.0,93,0.00,,,0.21,WeatherCatV1.10B1784,2013-04-05 01:31:00,
2013-04-04 18:36:00,55.1,53.1,29.74,SW,222,5.0,12.0,93,0.00,,,0.21,WeatherCatV1.10B1784,2013-04-05 01:36:00,
2013-04-04 18:41:00,55.1,52.8,29.75,SW,221,5.0,9.0,92,0.00,,,0.21,WeatherCatV1.10B1784,2013-04-05 01:41:00,
2013-04-04 18:46:00,55.3,53.0,29.75,SE,138,6.0,13.0,92,0.00,,,0.21,WeatherCatV1.10B1784,2013-04-05 01:46:00,
2013-04-04 18:51:00,55.3,53.0,29.75,South,174,6.0,12.0,92,0.00,,,0.21,WeatherCatV1.10B1784,2013-04-05 01:51:00,
2013-04-04 18:56:00,55.3,52.7,29.75,SE,138,8.0,10.0,91,0.00,,,0.21,WeatherCatV1.10B1784,2013-04-05 01:56:00,
2013-04-04 19:01:00,55.3,52.4,29.75,SSE,155,7.0,15.0,90,0.00,,,0.21,WeatherCatV1.10B1784,2013-04-05 02:01:00,
2013-04-04 19:06:00,55.4,52.2,29.75,SSE,148,6.0,18.0,89,0.00,,,0.21,WeatherCatV1.10B1784,2013-04-05 02:06:00,
2013-04-04 19:11:00,55.5,52.0,29.75,South,184,9.0,15.0,88,0.00,,,0.21,WeatherCatV1.10B1784,2013-04-05 02:11:00,
2013-04-04 19:16:00,55.6,52.1,29.75,South,173,5.0,13.0,88,0.00,,,0.21,WeatherCatV1.10B1784,2013-04-05 02:16:00,
2013-04-04 19:21:00,55.6,52.1,29.75,SW,225,5.0,10.0,88,0.00,,,0.21,WeatherCatV1.10B1784,2013-04-05 02:21:00,
2013-04-04 19:26:00,55.5,52.0,29.75,SSW,195,2.0,5.0,88,0.00,,,0.21,WeatherCatV1.10B1784,2013-04-05 02:26:00,
2013-04-04 19:31:00,55.3,52.1,29.75,SSE,165,2.0,5.0,89,0.00,,,0.21,WeatherCatV1.10B1784,2013-04-05 02:31:00,
2013-04-04 19:36:00,55.2,52.0,29.75,SSE,150,2.0,5.0,89,0.00,,,0.21,WeatherCatV1.10B1784,2013-04-05 02:36:00,
2013-04-04 19:41:00,55.1,52.2,29.75,SSE,147,0.0,2.0,90,0.00,,,0.21,WeatherCatV1.10B1784,2013-04-05 02:41:00,
2013-04-04 19:46:00,55.0,52.1,29.75,SSW,193,2.0,3.0,90,0.00,,,0.21,WeatherCatV1.10B1784,2013-04-05 02:46:00,
2013-04-04 19:51:00,55.1,51.9,29.75,SE,133,2.0,5.0,89,0.00,,,0.21,WeatherCatV1.10B1784,2013-04-05 02:51:00,
2013-04-04 19:56:00,55.2,51.7,29.75,SSE,160,4.0,10.0,88,0.00,,,0.21,WeatherCatV1.10B1784,2013-04-05 02:56:00,
2013-04-04 20:01:00,55.2,51.7,29.75,SE,146,2.0,5.0,88,0.00,,,0.21,WeatherCatV1.10B1784,2013-04-05 03:01:00,
2013-04-04 20:06:00,55.2,52.0,29.75,SW,224,6.0,6.0,89,0.00,,,0.21,WeatherCatV1.10B1784,2013-04-05 03:06:00,
2013-04-04 20:11:00,55.1,51.6,29.76,SSE,153,4.0,7.0,88,0.00,,,0.21,WeatherCatV1.10B1784,2013-04-05 03:11:00,
2013-04-04 20:16:00,55.1,51.6,29.76,South,172,8.0,12.0,88,0.00,,,0.21,WeatherCatV1.10B1784,2013-04-05 03:16:00,
2013-04-04 20:21:00,55.2,51.4,29.77,South,180,9.0,11.0,87,0.00,,,0.21,WeatherCatV1.10B1784,2013-04-05 03:21:00,
2013-04-04 20:26:00,55.3,51.2,29.77,SSE,153,3.0,12.0,86,0.00,,,0.21,WeatherCatV1.10B1784,2013-04-05 03:26:00,
2013-04-04 20:31:00,55.3,51.2,29.77,SSE,161,5.0,11.0,86,0.00,,,0.21,WeatherCatV1.10B1784,2013-04-05 03:31:00,
2013-04-04 20:36:00,55.3,51.2,29.77,SW,233,9.0,11.0,86,0.00,,,0.21,WeatherCatV1.10B1784,2013-04-05 03:36:00,
2013-04-04 20:41:00,55.4,51.0,29.78,SE,145,5.0,15.0,85,0.00,,,0.21,WeatherCatV1.10B1784,2013-04-05 03:41:00,
2013-04-04 20:46:00,55.3,50.9,29.78,SSE,149,7.0,13.0,85,0.00,,,0.21,WeatherCatV1.10B1784,2013-04-05 03:46:00,
2013-04-04 20:51:00,55.3,50.9,29.78,SSE,153,11.0,13.0,85,0.00,,,0.21,WeatherCatV1.10B1784,2013-04-05 03:51:00,
2013-04-04 20:56:00,55.3,50.9,29.78,South,191,9.0,10.0,85,0.00,,,0.21,WeatherCatV1.10B1784,2013-04-05 03:56:00,
2013-04-04 21:00:00,55.3,50.9,29.78,SSW,198,4.0,11.0,85,0.00,,,0.21,WeatherCatV1.10B1784,2013-04-05 04:00:00,
2013-04-04 21:01:00,55.2,50.8,29.78,SSW,210,6.0,8.0,85,0.00,,,0.21,WeatherCatV1.10B1784,2013-04-05 04:01:00,
2013-04-04 21:06:00,55.1,51.0,29.78,SSW,198,5.0,11.0,86,0.00,,,0.21,WeatherCatV1.10B1784,2013-04-05 04:06:00,
2013-04-04 21:11:00,55.0,50.9,29.78,SE,132,6.0,7.0,86,0.00,,,0.21,WeatherCatV1.10B1784,2013-04-05 04:11:00,
2013-04-04 21:16:00,54.9,50.8,29.78,SSW,211,7.0,7.0,86,0.00,,,0.21,WeatherCatV1.10B1784,2013-04-05 04:16:00,
2013-04-04 21:21:00,54.9,50.8,29.78,SSE,159,5.0,7.0,86,0.00,,,0.21,WeatherCatV1.10B1784,2013-04-05 04:21:00,
2013-04-04 21:26:00,54.8,50.7,29.78,SSW,204,2.0,7.0,86,0.00,,,0.21,WeatherCatV1.10B1784,2013-04-05 04:26:00,
2013-04-04 21:31:00,54.7,50.6,29.78,SSW,203,5.0,10.0,86,0.00,,,0.21,WeatherCatV1.10B1784,2013-04-05 04:31:00,
2013-04-04 21:36:00,54.8,50.7,29.79,SW,226,3.0,6.0,86,0.00,,,0.21,WeatherCatV1.10B1784,2013-04-05 04:36:00,
2013-04-04 21:41:00,54.7,50.6,29.79,South,190,4.0,6.0,86,0.00,,,0.21,WeatherCatV1.10B1784,2013-04-05 04:41:00,
2013-04-04 21:46:00,54.6,50.8,29.79,SSW,204,2.0,4.0,87,0.00,,,0.21,WeatherCatV1.10B1784,2013-04-05 04:46:00,
2013-04-04 21:51:00,54.5,50.7,29.79,WSW,239,4.0,5.0,87,0.00,,,0.21,WeatherCatV1.10B1784,2013-04-05 04:51:00,
2013-04-04 21:56:00,54.5,50.7,29.79,South,173,3.0,6.0,87,0.00,,,0.21,WeatherCatV1.10B1784,2013-04-05 04:56:00,
2013-04-04 22:01:00,54.2,50.7,29.78,South,169,3.0,5.0,88,0.00,,,0.21,WeatherCatV1.10B1784,2013-04-05 05:01:00,
2013-04-04 22:06:00,54.0,50.8,29.78,SSE,148,3.0,4.0,89,0.00,,,0.21,WeatherCatV1.10B1784,2013-04-05 05:06:00,
2013-04-04 22:11:00,53.7,50.5,29.78,SSE,156,4.0,5.0,89,0.00,,,0.21,WeatherCatV1.10B1784,2013-04-05 05:11:00,
2013-04-04 22:16:00,53.6,50.7,29.79,SE,131,2.0,3.0,90,0.00,,,0.21,WeatherCatV1.10B1784,2013-04-05 05:16:00,
2013-04-04 22:21:00,53.4,50.8,29.79,ESE,111,1.0,2.0,91,0.00,,,0.21,WeatherCatV1.10B1784,2013-04-05 05:21:00,
2013-04-04 22:26:00,53.2,50.9,29.79,SSE,147,0.0,6.0,92,0.00,,,0.21,WeatherCatV1.10B1784,2013-04-05 05:26:00,
2013-04-04 22:31:00,52.9,50.9,29.79,SSW,200,1.0,1.0,93,0.00,,,0.21,WeatherCatV1.10B1784,2013-04-05 05:31:00,
2013-04-04 22:36:00,52.8,51.1,29.79,SE,134,0.0,5.0,94,0.00,,,0.21,WeatherCatV1.10B1784,2013-04-05 05:36:00,
2013-04-04 22:41:00,52.8,51.1,29.79,ESE,117,1.0,5.0,94,0.00,,,0.21,WeatherCatV1.10B1784,2013-04-05 05:41:00,
2013-04-04 22:46:00,52.7,51.0,29.79,SSW,205,2.0,4.0,94,0.00,,,0.21,WeatherCatV1.10B1784,2013-04-05 05:46:00,
2013-04-04 22:51:00,52.7,51.0,29.78,SE,128,7.0,7.0,94,0.00,,,0.21,WeatherCatV1.10B1784,2013-04-05 05:51:00,
2013-04-04 22:56:00,52.7,51.0,29.78,SSE,155,5.0,5.0,94,0.00,,,0.21,WeatherCatV1.10B1784,2013-04-05 05:56:00,
2013-04-04 23:01:00,52.8,50.8,29.78,SSE,153,7.0,9.0,93,0.00,,,0.21,WeatherCatV1.10B1784,2013-04-05 06:01:00,
2013-04-04 23:06:00,53.0,50.7,29.78,SSE,147,8.0,9.0,92,0.00,,,0.21,WeatherCatV1.10B1784,2013-04-05 06:06:00,
2013-04-04 23:11:00,53.3,50.7,29.79,SE,135,8.0,8.0,91,0.00,,,0.21,WeatherCatV1.10B1784,2013-04-05 06:11:00,
2013-04-04 23:16:00,53.5,50.6,29.79,SE,146,8.0,8.0,90,0.00,,,0.21,WeatherCatV1.10B1784,2013-04-05 06:16:00,
2013-04-04 23:21:00,53.6,50.7,29.79,SW,224,3.0,5.0,90,0.00,,,0.21,WeatherCatV1.10B1784,2013-04-05 06:21:00,
2013-04-04 23:26:00,53.7,50.5,29.79,SE,134,6.0,6.0,89,0.00,,,0.21,WeatherCatV1.10B1784,2013-04-05 06:26:00,
2013-04-04 23:31:00,53.6,50.7,29.80,South,181,3.0,5.0,90,0.00,,,0.21,WeatherCatV1.10B1784,2013-04-05 06:31:00,
2013-04-04 23:36:00,53.7,50.5,29.80,SE,143,9.0,10.0,89,0.00,,,0.21,WeatherCatV1.10B1784,2013-04-05 06:36:00,
2013-04-04 23:41:00,53.9,50.1,29.80,SSE,151,7.0,10.0,87,0.00,,,0.21,WeatherCatV1.10B1784,2013-04-05 06:41:00,
2013-04-04 23:46:00,54.0,50.2,29.80,SW,224,4.0,5.0,87,0.00,,,0.21,WeatherCatV1.10B1784,2013-04-05 06:46:00,
2013-04-04 23:51:00,54.0,50.2,29.80,SSW,203,3.0,9.0,87,0.00,,,0.21,WeatherCatV1.10B1784,2013-04-05 06:51:00,
2013-04-04 23:56:00,53.9,50.1,29.80,SE,143,2.0,11.0,87,0.00,,,0.21,WeatherCatV1.10B1784,2013-04-05 06:56:00,